SCP
0 0 0 0 0 0 0 0 0 0 0 0 0 0 0 0 0 0 0 0 0 1 1 1 1 1 1 1 1 1 1 1 1 1 1 1 0 0 0 0 1 1 1 0
0 0 0 0 0 0 0 0 0 0 0 0 0 0 0 0 0 0 0 0 1 1 1 1 1 1 1 1 1 1 1 1 1 1 1 1 0 0 0 0 1 1 1 0
0 0 0 0 0 0 0 0 0 0 0 0 0 0 0 0 0 0 0 0 0 1 1 1 1 1 1 1 1 1 1 1 1 1 1 0 0 0 0 1 1 1 1 0
0 0 0 0 0 0 0 0 0 0 0 0 0 0 0 0 0 0 0 0 0 0 1 1 1 1 1 1 1 1 1 1 1 1 1 0 0 0 0 1 1 1 1 0
0 0 0 0 0 0 0 0 0 0 0 0 0 0 0 0 0 0 0 0 0 0 1 1 1 1 1 1 1 1 1 1 1 1 1 0 0 0 0 1 1 1 0 0
0 0 0 0 0 0 0 0 0 0 0 0 0 0 0 0 0 0 0 0 0 0 0 1 1 1 1 1 1 1 1 1 1 1 1 0 0 0 0 0 0 0 0 0
0 0 0 0 0 0 0 0 0 0 0 0 0 0 0 0 0 0 0 0 0 0 1 1 1 1 1 1 1 1 1 1 1 0 0 0 0 0 0 0 0 0 0 0
0 0 0 0 0 0 0 0 0 0 0 0 0 0 0 0 0 0 0 0 0 1 1 1 1 1 1 1 1 1 0 0 0 0 0 0 0 0 0 0 0 0 0 0
0 0 0 0 0 0 0 0 0 0 0 0 0 0 0 0 0 0 0 0 0 0 1 0 0 0 0 0 1 1 0 0 0 0 0 0 0 0 0 0 0 0 0 0
0 0 0 0 0 0 0 0 0 0 0 0 0 0 0 0 0 0 0 0 0 0 0 0 0 0 0 0 0 1 1 0 0 0 0 0 0 0 0 0 0 0 0 0
0 0 0 0 0 0 0 0 0 0 0 0 0 0 0 0 0 0 0 0 0 0 0 0 0 0 0 0 0 1 1 1 0 0 0 0 1 1 1 0 0 0 0 0
0 0 0 0 0 0 0 0 0 0 0 0 0 0 0 0 0 0 0 0 0 0 0 0 0 1 0 0 0 1 1 1 1 1 1 1 1 1 1 1 1 1 1 0
0 0 0 0 0 0 0 0 0 0 0 0 0 0 0 0 0 0 0 0 0 1 1 1 1 1 1 1 1 1 1 1 1 1 1 1 1 1 1 1 1 1 1 1
0 0 0 0 0 0 0 0 0 0 0 0 0 0 0 0 0 0 0 0 0 1 1 1 1 1 1 1 1 1 1 1 1 1 1 1 1 1 1 1 1 1 1 1
0 0 0 0 0 0 0 0 0 0 0 0 0 0 0 0 0 0 0 0 0 1 1 1 1 1 1 1 1 1 1 1 1 1 1 1 1 1 1 1 1 1 1 1
0 0 0 0 0 0 0 0 0 0 0 0 0 0 0 0 0 0 0 0 0 0 1 1 1 1 1 1 1 1 1 1 1 1 1 1 1 1 1 1 1 1 1 1
0 0 0 0 0 0 0 0 0 0 0 0 0 0 0 0 0 0 0 0 0 0 0 1 1 1 1 1 1 1 1 1 1 1 1 1 1 1 1 1 1 1 1 1
0 0 0 0 0 0 0 0 0 0 0 0 0 0 0 0 0 0 0 0 0 0 0 1 1 1 1 1 1 1 1 1 1 1 1 1 1 1 1 1 1 1 1 1
0 0 0 0 0 0 0 0 0 0 0 0 0 0 0 0 0 0 0 0 0 0 1 1 1 1 1 1 1 1 1 0 0 0 1 1 1 1 1 1 1 1 1 1
0 0 0 0 0 0 0 0 0 0 0 0 0 0 0 0 0 0 0 0 0 1 1 1 1 1 1 1 1 1 0 0 0 0 0 0 1 1 1 1 1 1 1 1
0 0 0 0 0 0 0 0 0 0 0 0 0 0 0 0 0 0 0 0 0 1 1 1 1 1 1 1 1 1 0 0 0 0 0 0 0 0 1 1 1 1 1 1
0 0 0 0 0 0 0 0 0 0 0 0 0 0 0 0 0 0 0 0 0 1 1 0 0 1 1 1 0 0 0 0 0 0 0 0 0 0 0 1 1 1 1 1
0 0 0 0 0 0 0 0 0 0 0 0 0 0 0 0 0 0 0 0 0 1 1 0 0 0 0 0 0 0 0 0 0 0 0 0 0 0 0 0 0 1 1 1
0 0 0 0 0 0 0 0 0 0 0 0 0 0 0 1 0 0 0 0 0 1 1 0 0 0 0 0 0 0 0 0 0 0 0 0 0 0 0 0 0 0 0 1
0 0 0 0 0 0 0 0 0 0 0 0 0 0 0 0 1 1 1 0 0 1 1 1 0 0 0 0 0 0 0 0 0 0 0 0 0 0 0 0 0 0 0 0
0 0 0 0 0 0 0 0 0 0 0 0 0 0 0 0 1 1 1 1 1 1 1 1 0 0 0 0 0 0 0 0 0 0 0 0 0 0 0 0 0 0 0 0
Wind_Speed
12 13 13 13 15 14 13 12 11 9 9 11 8 5 4 4 5 6 6 6 6 6 7 8 8 7 7 6 5 4 4 3 3 2 1 1 1 1 1 1 2 2 1 1
12 15 15 13 14 14 15 14 12 9 7 9 7 7 6 6 5 4 5 6 6 7 7 8 8 7 7 6 5 5 4 4 3 2 1 1 1 1 1 1 2 2 1 0
16 13 13 14 14 14 14 13 11 10 8 10 9 7 5 4 4 4 4 6 6 6 7 8 7 6 7 7 6 5 4 4 2 2 1 1 1 0 1 1 2 2 2 1
15 14 13 14 13 14 12 11 10 12 11 8 8 6 6 7 5 4 4 5 6 7 7 8 9 7 6 7 6 5 5 4 3 2 2 1 1 1 1 1 2 2 2 2
14 13 14 14 13 13 12 10 11 12 13 10 8 7 6 6 5 6 6 5 5 7 7 8 8 8 7 7 7 6 5 4 3 2 1 1 0 0 1 2 2 2 2 1
15 13 12 12 12 12 10 11 11 12 8 10 9 8 6 4 6 7 7 6 6 7 7 8 8 8 7 7 6 6 5 4 3 2 2 1 1 1 1 2 2 1 2 1
15 14 12 12 12 9 9 8 6 7 7 7 6 6 4 0 3 5 8 8 7 6 7 8 8 8 7 7 7 6 5 4 3 2 2 1 1 1 1 1 1 1 1 1
12 11 10 10 11 8 9 10 7 7 7 5 6 4 2 2 3 4 7 8 8 7 7 7 7 8 7 7 6 6 5 4 3 3 2 1 1 1 1 1 1 1 1 2
8 8 7 8 9 9 10 10 9 9 9 7 4 2 2 4 4 5 5 9 10 9 8 7 7 7 7 7 6 5 5 4 3 3 3 3 2 1 1 1 1 1 1 2
8 8 8 7 8 10 11 9 5 6 5 6 3 3 2 4 3 4 4 6 8 9 9 9 7 6 6 6 6 5 5 5 3 3 2 3 3 2 1 1 1 1 1 1
8 8 8 7 7 8 8 9 7 5 5 6 4 1 2 4 4 3 6 6 7 8 8 8 7 6 6 6 6 5 5 5 4 3 2 1 2 3 2 2 2 2 1 1
6 6 8 8 8 7 8 7 6 5 6 7 4 0 2 2 3 3 5 6 6 6 7 7 7 7 6 6 5 5 4 4 4 3 2 2 1 2 2 2 2 2 2 1
4 4 6 7 6 4 5 5 7 5 5 6 5 2 1 1 2 4 5 6 6 6 6 7 6 6 5 5 4 4 4 3 3 3 3 2 2 2 2 2 2 2 2 2
4 5 7 8 6 4 7 8 8 6 5 5 3 2 3 2 2 4 4 5 6 6 5 5 5 5 4 4 4 3 3 2 2 2 3 3 3 3 2 2 2 2 2 3
4 7 9 10 10 9 9 8 8 7 7 6 3 3 3 2 3 4 5 5 6 6 5 5 5 4 3 3 3 2 2 2 2 2 2 3 3 3 2 2 2 3 3 3
3 6 9 11 10 11 9 9 8 7 6 5 2 1 0 3 3 4 4 5 6 5 5 5 5 4 3 3 2 2 2 2 1 2 2 3 3 3 2 2 2 2 2 2
4 5 8 9 9 11 9 5 4 4 4 3 2 2 1 2 3 3 3 4 5 5 4 4 4 3 2 2 2 1 1 1 2 2 2 2 3 3 3 3 2 2 2 2
6 5 6 8 9 10 4 3 2 2 2 1 1 2 2 3 4 4 3 2 3 4 3 3 3 3 2 2 2 1 1 1 1 2 2 2 2 3 2 2 2 2 2 2
6 7 6 5 7 6 3 2 4 2 1 2 1 1 2 4 4 4 4 3 3 4 3 3 3 3 2 2 2 1 1 2 2 2 2 2 2 2 2 2 2 1 2 2
6 6 6 6 7 5 2 4 4 2 1 4 3 2 2 2 0 3 4 3 4 4 4 3 3 4 3 2 2 2 2 2 2 2 2 2 2 2 2 2 2 2 2 3
8 8 8 8 7 2 4 5 5 2 2 5 4 3 4 3 3 3 3 4 4 4 4 4 4 3 3 3 2 2 2 2 2 2 1 1 2 2 2 2 2 2 3 3
5 5 6 6 6 2 6 4 4 4 4 4 5 4 4 4 3 3 2 4 4 4 4 4 3 3 3 3 2 2 2 2 2 2 2 2 2 3 2 2 2 3 3 3
2 2 2 0 0 4 6 6 6 4 4 4 4 4 3 2 2 2 2 3 4 4 4 3 3 3 2 2 2 2 2 2 2 1 1 1 2 2 2 3 3 3 3 3
2 3 1 1 2 2 5 5 5 5 4 4 4 4 4 2 2 2 1 2 3 3 3 3 3 3 2 2 2 1 1 1 2 1 1 2 2 3 3 3 3 3 3 2
4 4 2 0 1 2 4 4 3 3 4 4 3 3 3 3 2 1 1 1 2 3 3 3 3 2 2 2 1 1 0 0 1 1 2 2 3 3 2 3 2 2 1 1
4 4 3 3 3 2 2 4 4 3 3 3 3 3 3 2 2 2 1 1 1 2 2 2 2 2 2 1 1 1 0 0 1 1 2 2 2 2 3 3 2 0 1 2
Wind_Direction
229 233 235 237 241 253 264 265 267 258 250 257 252 242 225 213 220 205 188 177 169 154 142 134 134 142 136 134 137 147 143 133 139 144 165 180 185 187 147 155 135 119 109 67
235 238 244 250 252 254 259 262 262 270 262 260 254 245 236 214 220 217 182 173 170 152 145 136 136 142 141 143 144 145 139 141 148 141 171 191 168 211 157 121 125 129 116 37
239 244 246 248 248 252 255 265 269 273 266 258 257 258 249 232 218 207 189 171 162 160 149 148 147 147 148 147 152 152 143 139 156 148 168 141 127 251 108 125 122 131 135 129
248 249 248 250 250 255 262 265 266 272 270 259 248 253 242 226 205 191 198 190 168 165 156 155 151 152 149 145 147 140 138 138 151 146 147 151 155 188 152 131 128 139 132 120
247 247 247 250 251 255 265 271 270 268 267 272 261 256 237 205 199 196 194 190 172 156 152 153 150 148 142 141 139 138 133 135 137 143 145 163 136 118 87 92 112 135 136 144
258 258 255 257 255 250 260 270 272 269 262 255 249 256 252 209 202 190 177 175 166 153 151 146 141 138 138 138 134 135 135 136 136 152 149 150 125 94 83 82 105 149 130 131
248 250 248 252 257 247 249 256 264 259 246 254 260 247 248 178 178 165 159 158 146 145 137 138 141 141 142 141 136 133 133 140 149 157 148 154 162 151 126 131 151 138 121 122
244 240 230 236 247 248 238 243 248 264 269 266 254 240 176 167 109 121 139 137 134 141 141 145 144 143 147 140 137 133 133 139 153 160 159 159 136 161 148 165 142 115 92 105
263 258 241 248 249 245 248 250 265 270 275 271 239 189 154 99 109 127 138 143 150 149 151 145 142 146 146 141 138 134 132 136 147 159 164 167 159 176 169 148 143 108 91 105
274 272 255 244 247 237 253 261 269 268 279 279 249 241 160 158 142 131 156 148 145 146 147 142 143 146 143 140 136 138 140 148 154 157 182 177 166 169 159 133 135 119 109 80
262 268 260 244 236 244 248 252 251 257 267 275 267 223 118 144 133 154 161 152 146 147 148 145 144 147 140 135 142 148 147 148 156 158 157 152 170 169 162 154 146 132 122 129
264 271 266 247 239 244 249 259 261 262 273 271 278 38 33 86 132 154 138 131 133 138 145 145 144 142 141 143 145 143 147 158 164 159 158 161 155 159 163 171 164 156 163 171
257 259 258 249 233 229 253 264 275 279 270 278 282 162 153 38 88 88 112 129 133 132 138 141 137 136 140 142 143 147 160 168 175 167 164 153 153 161 179 181 173 168 173 176
250 258 261 259 262 249 241 245 254 258 268 280 286 213 201 200 127 107 114 126 136 134 130 131 134 135 138 139 146 156 168 168 170 162 162 156 166 174 187 191 186 186 197 196
259 263 268 273 273 257 250 246 241 241 256 263 233 240 212 183 144 131 130 126 128 131 132 130 135 136 143 146 151 160 171 163 157 162 163 159 165 175 175 186 206 200 211 210
249 272 275 273 270 274 266 253 240 246 252 255 226 267 166 121 118 120 131 141 145 149 147 140 137 137 139 141 155 160 167 152 158 185 184 169 163 165 172 187 211 207 209 215
252 258 274 278 280 277 265 262 250 260 271 259 245 210 195 120 108 118 126 143 151 148 139 130 131 138 136 133 136 156 166 155 178 199 195 177 178 187 194 205 204 200 212 211
256 263 262 261 263 260 263 293 253 261 300 358 118 161 177 103 97 103 122 138 140 135 132 130 140 142 138 139 138 138 151 170 189 201 219 207 198 197 194 197 207 206 210 214
238 245 258 264 264 255 259 296 304 287 331 42 44 44 104 97 108 110 104 107 118 124 119 126 140 143 141 147 145 156 178 191 210 216 218 221 206 193 199 207 208 208 215 222
227 232 246 253 264 261 294 322 310 261 178 24 28 22 54 84 81 94 89 100 108 112 117 124 138 135 135 142 146 180 197 216 232 242 237 225 221 210 208 212 216 224 228 228
218 225 236 252 257 280 336 329 307 271 32 8 24 18 33 43 54 69 85 101 110 115 124 133 133 138 146 154 159 184 199 221 249 256 249 236 240 233 214 206 223 230 234 230
241 241 240 252 252 260 1 5 25 34 35 30 30 28 36 57 79 90 96 119 125 129 136 135 132 144 148 158 171 189 213 239 247 257 258 248 238 248 228 203 226 233 243 239
286 302 281 323 99 69 50 54 49 37 29 26 23 17 15 45 49 64 99 132 137 142 141 139 147 147 152 165 178 198 224 248 250 254 267 253 241 242 225 210 220 234 239 251
331 331 252 140 127 95 73 63 43 28 15 20 20 13 6 3 9 28 48 136 142 148 144 143 156 166 166 171 185 204 218 232 252 258 268 263 248 231 221 226 218 216 233 246
329 328 313 43 35 49 48 38 21 9 7 12 15 4 354 357 354 26 36 108 137 147 154 161 171 172 172 163 166 169 184 210 261 272 266 265 260 246 227 219 235 238 234 205
345 352 346 2 356 326 337 346 351 355 353 348 349 352 348 344 340 354 357 40 132 152 154 157 162 168 179 182 174 148 162 212 258 258 261 256 258 259 248 226 209 56 189 186